Regional Weather Roundup
Issued by NWS

Home | Current Version | Previous Version | Graphics & Text | Print | Product List | Glossary On
Versions: 1 2 3 4 5 6 7 8 9 10 11 12 13 14 15 16 17 18 19 20 21 22 23 24 25 26 27 28 29 30 31 32 33 34 35 36 37 38 39 40 41 42 43 44 45 46 47 48 49 50
000
ASUS43 KLOT 301708
RWRIL

ILLINOIS REGIONAL WEATHER ROUNDUP
NATIONAL WEATHER SERVICE CHICAGO/ROMEOVILLE IL
1200 PM CDT SUN AUG 30 2015

NOTE: "FAIR" INDICATES FEW OR NO CLOUDS BELOW 12,000 FEET WITH NO
SIGNIFICANT WEATHER AND/OR OBSTRUCTIONS TO VISIBILITY.

* THESE STATIONS ARE NOT UNDER NWS QUALITY CONTROL. THEY ALSO MAY NOT
  REPORT WEATHER SUCH AS PRECIPITATION OR FOG.

ILZ001-002-007-009-015-016-024-301800-
NORTHWEST ILLINOIS

CITY           SKY/WX    TMP DP  RH WIND       PRES   REMARKS
MOLINE         SUNNY     74  65  73 CALM      30.09F
STERLING*        N/A    N/A N/A N/A MISG        N/A
SAVANNA*       CLOUDY    72  62  71 W5        30.09F
$$

ILZ003-004-008-010-011-017-018-301800-
NORTH CENTRAL ILLINOIS

CITY           SKY/WX    TMP DP  RH WIND       PRES   REMARKS
ROCKFORD       CLOUDY    72  61  68 S3        30.11S
FREEPORT*      CLOUDY    68  60  74 CALM      30.12F
ROCHELLE*      CLOUDY    69  61  74 CALM      30.10S
DE KALB*       CLOUDY    70  62  75 CALM      30.11S
PERU*          CLOUDY    69  65  84 SW3       30.10S FOG
$$

ILZ005-006-012>014-019>023-301800-
NORTHEAST ILLINOIS

CITY           SKY/WX    TMP DP  RH WIND       PRES   REMARKS
CHICAGO-OHARE  CLOUDY    71  64  78 NE6       30.08S
CHICAGO-MIDWAY PTSUNNY   75  63  66 VRB3      30.08S
AURORA         PTSUNNY   74  63  68 N3        30.09F
LANSING*       PTSUNNY   73  64  75 CALM      30.09S
JOLIET*        CLOUDY    74  65  72 CALM      30.09S
WAUKEGAN       CLOUDY    68  63  84 CALM      30.08S HAZE
DUPAGE AIRPORT CLOUDY    72  61  68 NW5       30.08F
KANKAKEE*      CLOUDY    74  69  83 CALM      30.09S HAZE
WHEELING       CLOUDY    70  64  81 NE3       30.10S
MORRIS*        MOSUNNY   73  64  74 CALM      30.07F
ROMEOVILLE*    CLOUDY    73  64  73 CALM      30.09S
NORTHERLY ISL    N/A     67  64  90 N3          N/A
$$

LMZ740>746-301800-
SOUTHERN LAKE MICHIGAN

STATION/POSITION SKY/WX   TEMP    WIND        PRES    VSBY  WAVE
                          AIR SEA DIR/SP/G                  HT/PER
                          (F)     (DEG/KT/KT) (MB)    (MI)  (FT/S)
SOUTHERN BUOY              67 68  340/ 10/ 10 1017.9F         1
WILMETTE HARBOR            60 59  120/  2/  4   N/A           1/ 4
HARRISON CRIB              63     320/  5/  6   N/A
BURNHAM HARBOR             67      20/  4/  9   N/A
BURNS HARBOR               69     320/  4/  5 1019.3R
MICHIGAN CITY              69     250/  4/  5   N/A
MICHIGAN CITY 6N           70 72  300/  4/  6   N/A           1/ 3
ST. JOSEPH                 69 71  290/  6/  8   N/A           1/ 3
$$

ILZ025>027-034>036-040-047-049-050-058-095>099-301800-
WEST-CENTRAL ILLINOIS

CITY           SKY/WX    TMP DP  RH WIND       PRES   REMARKS
QUINCY         MOSUNNY   79  69  71 CALM      30.07F HX  81
GALESBURG*     MOSUNNY   75  67  76 CALM      30.09S
MACOMB*        CLOUDY    73  69  87 NE3       30.10F
JACKSONVILLE*  PTSUNNY   82  72  71 CALM      30.06F HX  87
PITTSFIELD*    MOSUNNY   82  71  68 CALM      30.08F HX  86
$$

ILZ028>032-037-038-041>044-048-051>054-059>061-301800-
CENTRAL ILLINOIS

CITY           SKY/WX    TMP DP  RH WIND       PRES   REMARKS
PONTIAC        CLOUDY    73  69  89 NE3       30.10S FOG
BLOOMINGTON    PTSUNNY   76  71  84 VRB5      30.10S HAZE
DECATUR        PTSUNNY   82  69  64 SW8       30.07F HX  85
PEORIA         CLOUDY    75  67  76 NE5       30.09S
LACON*         CLOUDY    68  65  92 CALM      30.09S
LINCOLN*       CLOUDY    82  70  66 CALM      30.06S HX  85
SPRINGFIELD    MOSUNNY   82  70  66 VRB6      30.07S HX  86
TAYLORVILLE    MOSUNNY   81  66  61 SW3       30.07F HX  83
$$

ILZ033-039-045-046-055>057-062-063-301800-
EAST-CENTRAL ILLINOIS

CITY           SKY/WX    TMP DP  RH WIND       PRES   REMARKS
CHAMPAIGN      CLOUDY    79  69  71 CALM      30.09S HX  81
RANTOUL*       CLOUDY    78  71  80 CALM      30.08F HX  80
MATTOON        SUNNY     82  64  54 SW9       30.08F HX  83
PARIS*         MOSUNNY   81  67  63 S7        30.09F HX  83
$$

ILZ079-100>102-301800-
SOUTHWEST ILLINOIS

CITY           SKY/WX    TMP DP  RH WIND       PRES   REMARKS
ALTON          PTSUNNY   79  68  69 S6        30.07S HX  81
BELLEVILLE     SUNNY     83  70  64 VRB3      30.05F HX  88
CAHOKIA*       SUNNY     84  65  52 VRB5      30.06F HX  86
SPARTA*        MOSUNNY   80  71  73 SW7       30.09S HX  84
$$

ILZ064>066-069>071-074>076-080>082-084>086-088>090-092>094-301800-
SOUTH-CENTRAL ILLINOIS

CITY           SKY/WX    TMP DP  RH WIND       PRES   REMARKS
CARBONDALE     MOSUNNY   80  69  69 S7        30.08F HX  83
CAIRO*         CLOUDY    75  74  97 S3        30.09F
EFFINGHAM*     MOSUNNY   82  62  51 SW7       30.10S HX  83
MARION         PTSUNNY   82  72  69 S8        30.09F HX  87
MT. VERNON     MOSUNNY   84  68  58 S8        30.09F HX  87
SALEM*         MOSUNNY   83  68  60 SW6       30.08F HX  86
METROPOLIS*    CLOUDY    78  74  87 CALM      30.10S HX  81
$$

ILZ067-068-072-073-078-083-087-091-301800-
SOUTHEAST ILLINOIS

CITY           SKY/WX    TMP DP  RH WIND       PRES   REMARKS
LAWRENCEVILLE  CLOUDY    82  69  64 VRB6      30.09F HX  85
FLORA*         MOSUNNY   83  66  57 S7        30.08F HX  85
FAIRFIELD*     MOSUNNY   82  68  62 S7        30.08F HX  85
HARRISBURG*    PTSUNNY   75  68  77 CALM      30.09F
ROBINSON*      PTSUNNY   82  65  56 SW8       30.10F HX  84
CARMI*         PTSUNNY   78  72  82 S5        30.09S
$$

ABBREVIATIONS USED IN REMARKS
   TC - TEMPERATURE IN CELSIUS
  WCI - WIND CHILL INDEX
   HX - HEAT INDEX
  VSB - VISIBILITY
$$




USA.gov is the U.S. government's official web portal to all federal, state and local government web resources and services.